• Em Portugal
  • Lista de países
  • Para 7 dias
  • Temperatura da água
  • Mapas de satélite
  • Mapa do tempo
  • Widgets de tempo
  • user-avatar
    Iniciar Sessão

    Previsão horária em Oran

    Hoje, 18 Dezembro, Segunda-feira

    Tempo Temperatura Precipitação Vento Pressão Humidade
    00:00 +9°C° 0 mm 2 m/s 762 mmHg 78%
    01:00 +9°C° 0 mm 2 m/s 762 mmHg 79%
    02:00 +8°C° 0 mm 2 m/s 762 mmHg 80%
    03:00 +8°C° 0 mm 2 m/s 762 mmHg 81%
    04:00 +8°C° 0 mm 2 m/s 762 mmHg 82%
    05:00 +7°C° 0 mm 2 m/s 762 mmHg 83%
    06:00 +7°C° 0 mm 2 m/s 762 mmHg 84%
    07:00 +8°C° 0 mm 2 m/s 762 mmHg 77%
    08:00 +10°C° 0 mm 2 m/s 762 mmHg 71%
    09:00 +12°C° 0 mm 2 m/s 762 mmHg 64%
    10:00 +13°C° 0 mm 1 m/s 762 mmHg 59%
    11:00 +13°C° 0 mm 1 m/s 762 mmHg 54%
    12:00 +14°C° 0 mm 1 m/s 762 mmHg 50%
    13:00 +14°C° 0 mm 1 m/s 761 mmHg 48%
    14:00 +15°C° 0 mm 1 m/s 761 mmHg 47%
    15:00 +15°C° 0 mm 2 m/s 760 mmHg 45%
    16:00 +14°C° 0 mm 1 m/s 760 mmHg 52%
    17:00 +13°C° 0 mm 1 m/s 760 mmHg 58%
    18:00 +12°C° 0 mm 1 m/s 760 mmHg 64%
    19:00 +11°C° 0 mm 1 m/s 760 mmHg 66%
    20:00 +11°C° 0 mm 1 m/s 759 mmHg 67%
    21:00 +9°C° 0 mm 2 m/s 759 mmHg 69%
    22:00 +9°C° 0 mm 2 m/s 759 mmHg 69%
    23:00 +9°C° 0 mm 3 m/s 758 mmHg 68%

    Amanhã, 19 Dezembro, Terça-feira

    Tempo Temperatura Precipitação Vento Pressão Humidade
    00:00 +8°C° 0 mm 4 m/s 758 mmHg 68%
    01:00 +8°C° 0 mm 4 m/s 758 mmHg 68%
    02:00 +8°C° 0 mm 5 m/s 757 mmHg 68%
    03:00 +8°C° 0 mm 5 m/s 757 mmHg 68%
    04:00 +8°C° 0 mm 5 m/s 757 mmHg 67%
    05:00 +9°C° 0 mm 5 m/s 757 mmHg 65%
    06:00 +9°C° 0 mm 6 m/s 756 mmHg 63%
    07:00 +9°C° 0,6 mm 6 m/s 757 mmHg 66%
    08:00 +10°C° 0,6 mm 6 m/s 757 mmHg 69%
    09:00 +10°C° 0,6 mm 6 m/s 758 mmHg 71%
    10:00 +10°C° 0,8 mm 6 m/s 758 mmHg 73%
    11:00 +11°C° 0,8 mm 7 m/s 758 mmHg 76%
    12:00 +11°C° 0,8 mm 7 m/s 758 mmHg 78%
    13:00 +11°C° 0,4 mm 7 m/s 758 mmHg 75%
    14:00 +12°C° 0,4 mm 8 m/s 758 mmHg 73%
    15:00 +12°C° 0,4 mm 8 m/s 758 mmHg 70%
    16:00 +11°C° 0,2 mm 8 m/s 758 mmHg 73%
    17:00 +10°C° 0,2 mm 8 m/s 759 mmHg 76%
    18:00 +10°C° 0,2 mm 8 m/s 759 mmHg 78%
    19:00 +10°C° 0,5 mm 8 m/s 759 mmHg 79%
    20:00 +10°C° 0,5 mm 8 m/s 760 mmHg 81%
    21:00 +10°C° 0,5 mm 7 m/s 760 mmHg 82%
    22:00 +9°C° 0,5 mm 7 m/s 760 mmHg 83%
    23:00 +9°C° 0,5 mm 7 m/s 760 mmHg 85%

    Depois de amanhã, 20 Dezembro, Quarta-feira

    Tempo Temperatura Precipitação Vento Pressão Humidade
    00:00 +9°C° 0,5 mm 7 m/s 760 mmHg 86%
    01:00 +9°C° 0,5 mm 7 m/s 760 mmHg 87%
    02:00 +9°C° 0,5 mm 7 m/s 760 mmHg 88%
    03:00 +8°C° 0,5 mm 6 m/s 760 mmHg 89%
    04:00 +8°C° 0,4 mm 6 m/s 760 mmHg 89%
    05:00 +8°C° 0,4 mm 6 m/s 760 mmHg 89%
    06:00 +8°C° 0,4 mm 6 m/s 760 mmHg 90%
    07:00 +9°C° 0,3 mm 6 m/s 761 mmHg 86%
    08:00 +10°C° 0,3 mm 5 m/s 761 mmHg 83%
    09:00 +12°C° 0,3 mm 5 m/s 762 mmHg 79%
    10:00 +13°C° 0,1 mm 5 m/s 762 mmHg 72%
    11:00 +13°C° 0,1 mm 4 m/s 762 mmHg 66%
    12:00 +14°C° 0,1 mm 4 m/s 762 mmHg 59%
    13:00 +14°C° 0 mm 4 m/s 762 mmHg 57%
    14:00 +14°C° 0 mm 4 m/s 762 mmHg 54%
    15:00 +14°C° 0 mm 4 m/s 761 mmHg 52%
    16:00 +13°C° 0 mm 4 m/s 762 mmHg 57%
    17:00 +12°C° 0 mm 4 m/s 762 mmHg 62%
    18:00 +11°C° 0 mm 3 m/s 762 mmHg 66%
    19:00 +11°C° 0 mm 3 m/s 762 mmHg 69%
    20:00 +10°C° 0 mm 3 m/s 763 mmHg 72%
    21:00 +10°C° 0 mm 2 m/s 763 mmHg 74%
    22:00 +10°C° 0,2 mm 2 m/s 763 mmHg 75%
    23:00 +9°C° 0,2 mm 2 m/s 763 mmHg 76%

    21 Dezembro, Quinta-feira

    Tempo Temperatura Precipitação Vento Pressão Humidade
    00:00 +9°C° 0,2 mm 2 m/s 763 mmHg 77%
    01:00 +9°C° 0,1 mm 2 m/s 763 mmHg 77%
    02:00 +10°C° 0,1 mm 2 m/s 763 mmHg 77%
    03:00 +10°C° 0,1 mm 3 m/s 763 mmHg 77%
    04:00 +10°C° 0 mm 3 m/s 763 mmHg 80%
    05:00 +9°C° 0 mm 3 m/s 763 mmHg 82%
    06:00 +9°C° 0 mm 3 m/s 764 mmHg 85%
    07:00 +10°C° 0,1 mm 3 m/s 764 mmHg 81%
    08:00 +11°C° 0,1 mm 3 m/s 764 mmHg 78%
    09:00 +12°C° 0,1 mm 3 m/s 765 mmHg 74%
    10:00 +13°C° 0,1 mm 4 m/s 765 mmHg 71%
    11:00 +13°C° 0,1 mm 4 m/s 765 mmHg 68%
    12:00 +14°C° 0,1 mm 5 m/s 765 mmHg 64%
    13:00 +14°C° 0,1 mm 5 m/s 765 mmHg 64%
    14:00 +14°C° 0,1 mm 5 m/s 765 mmHg 63%
    15:00 +14°C° 0,1 mm 5 m/s 765 mmHg 62%
    16:00 +13°C° 0 mm 5 m/s 765 mmHg 66%
    17:00 +12°C° 0 mm 5 m/s 766 mmHg 70%
    18:00 +11°C° 0 mm 4 m/s 766 mmHg 73%
    19:00 +11°C° 0,1 mm 4 m/s 766 mmHg 76%
    20:00 +11°C° 0,1 mm 3 m/s 767 mmHg 79%
    21:00 +10°C° 0,1 mm 3 m/s 767 mmHg 82%
    22:00 +10°C° 0,1 mm 3 m/s 767 mmHg 83%
    23:00 +10°C° 0,1 mm 2 m/s 767 mmHg 84%

    22 Dezembro, Sexta-feira

    Tempo Temperatura Precipitação Vento Pressão Humidade
    00:00 +10°C° 0,1 mm 2 m/s 767 mmHg 86%
    01:00 +10°C° 0,1 mm 2 m/s 767 mmHg 86%
    02:00 +10°C° 0,1 mm 2 m/s 767 mmHg 86%
    03:00 +10°C° 0,1 mm 2 m/s 766 mmHg 86%
    04:00 +10°C° 0,1 mm 2 m/s 766 mmHg 86%
    05:00 +9°C° 0,1 mm 2 m/s 766 mmHg 87%
    06:00 +9°C° 0,1 mm 2 m/s 766 mmHg 88%
    07:00 +11°C° 0 mm 1 m/s 766 mmHg 84%
    08:00 +12°C° 0 mm 1 m/s 767 mmHg 81%
    09:00 +13°C° 0 mm 1 m/s 767 mmHg 77%
    10:00 +14°C° 0 mm 1 m/s 767 mmHg 73%
    11:00 +14°C° 0 mm 1 m/s 766 mmHg 69%
    12:00 +15°C° 0 mm 1 m/s 766 mmHg 64%
    13:00 +15°C° 0 mm 1 m/s 766 mmHg 64%
    14:00 +15°C° 0 mm 1 m/s 765 mmHg 64%
    15:00 +15°C° 0 mm 1 m/s 765 mmHg 63%
    16:00 +14°C° 0 mm 1 m/s 765 mmHg 68%
    17:00 +14°C° 0 mm 1 m/s 765 mmHg 74%
    18:00 +13°C° 0 mm 1 m/s 765 mmHg 79%
    19:00 +12°C° 0 mm 1 m/s 765 mmHg 82%
    20:00 +12°C° 0 mm 1 m/s 765 mmHg 84%
    21:00 +10°C° 0 mm 0 m/s 765 mmHg 87%
    22:00 +11°C° 0 mm 1 m/s 764 mmHg 87%
    23:00 +11°C° 0 mm 1 m/s 764 mmHg 87%

    23 Dezembro, Sábado

    Tempo Temperatura Precipitação Vento Pressão Humidade
    00:00 +11°C° 0 mm 1 m/s 764 mmHg 87%
    01:00 +10°C° 0 mm 1 m/s 764 mmHg 86%
    02:00 +10°C° 0 mm 1 m/s 763 mmHg 86%
    03:00 +10°C° 0 mm 1 m/s 763 mmHg 86%
    04:00 +10°C° 0 mm 1 m/s 763 mmHg 85%
    05:00 +9°C° 0 mm 1 m/s 763 mmHg 85%
    06:00 +9°C° 0 mm 1 m/s 763 mmHg 84%
    07:00 +11°C° 0 mm 1 m/s 763 mmHg 77%
    08:00 +12°C° 0 mm 2 m/s 763 mmHg 69%
    09:00 +14°C° 0 mm 2 m/s 763 mmHg 61%
    10:00 +15°C° 0 mm 1 m/s 763 mmHg 56%
    11:00 +16°C° 0 mm 1 m/s 763 mmHg 51%
    12:00 +18°C° 0 mm 1 m/s 762 mmHg 46%
    13:00 +18°C° 0 mm 1 m/s 762 mmHg 45%
    14:00 +18°C° 0 mm 1 m/s 762 mmHg 45%
    15:00 +19°C° 0 mm 1 m/s 761 mmHg 44%
    16:00 +16°C° 0 mm 2 m/s 761 mmHg 49%
    17:00 +15°C° 0 mm 2 m/s 762 mmHg 55%
    18:00 +14°C° 0 mm 2 m/s 762 mmHg 61%
    19:00 +13°C° 0 mm 2 m/s 762 mmHg 62%
    20:00 +13°C° 0 mm 2 m/s 762 mmHg 64%
    21:00 +12°C° 0 mm 2 m/s 762 mmHg 66%
    22:00 +12°C° 0 mm 2 m/s 762 mmHg 66%
    23:00 +12°C° 0 mm 2 m/s 762 mmHg 66%
    Mostrar mais